Location: Brighton Point
(40.6144°N, 111.7933°W)
Time: 01:54:31
(UTC+00:00)

N. Korean satellite - Pass Details

Date: 11 March 2021
Orbit: 453 x 499 km, 97.2° (Epoch: 11 April)

Event Time Altitude Azimuth Distance (km) Brightness Sun altitude
Rises 12:48:39 0° 12° (NNE) 2,554 10.5 -11.5°
Reaches altitude 10° 12:50:42 10° 14° (NNE) 1,677 9.5 -11.1°
Maximum altitude 12:54:20 81° 103° (ESE) 502 6.7 -10.4°
Drops below altitude 10° 12:57:57 10° 190° (S) 1,685 9.2 -9.7°
Sets 13:00:02 0° 191° (S) 2,568 10.1 -9.3°
